CT1ETE Weather Reports


time (UTC)temp
C
wind
direction
speed
KPH
gust
KPH
rain 1hr
cm
rain 24hr
cm
rain mn
cm
humidity
%
barometer
mb
20181023140315 21 82 9.7 22.5 0.00 0.00 0.00 44 1024.6
20181023134816 21 37 8.0 16.1 0.00 0.00 0.00 44 1024.6
20181023133315 21 65 11.3 20.9 0.00 0.00 0.00 44 1024.9
20181023131813 21 83 9.7 24.1 0.00 0.00 0.00 44 1025.0
20181023130312 21 72 9.7 22.5 0.00 0.00 0.00 46 1025.2
20181023124811 20 59 14.5 27.4 0.00 0.00 0.00 46 1025.2
20181023124046 20 42 16.1 35.4 0.00 0.00 0.00 45 1025.2
20181023123312 20 42 16.1 35.4 0.00 0.00 0.00 45 1025.2
20181023121809 20 65 24.1 49.9 0.00 0.00 0.00 45 1025.4
20181023121046 20 69 27.4 45.1 0.00 0.00 0.00 44 1025.6
20181023120310 20 69 27.4 45.1 0.00 0.00 0.00 44 1025.6
20181023114814 20 71 16.1 43.5 0.00 0.00 0.00 44 1025.7
20181023114810 20 53 16.1 43.5 0.00 0.00 0.00 44 1025.7
20181023113314 19 147 22.5 45.1 0.00 0.00 0.00 45 1025.8
20181023113310 19 75 22.5 45.1 0.00 0.00 0.00 45 1025.8
20181023111813 19 28 20.9 41.8 0.00 0.00 0.00 47 1025.9
20181023111809 19 5 20.9 41.8 0.00 0.00 0.00 47 1025.9
20181023110314 18 59 20.9 51.5 0.00 0.00 0.00 46 1025.7
20181023110309 18 82 20.9 51.5 0.00 0.00 0.00 46 1025.7
20181023104814 18 108 25.7 45.1 0.00 0.00 0.00 47 1026.0
20181023104810 18 64 25.7 45.1 0.00 0.00 0.00 47 1026.0
20181023103309 18 60 33.8 49.9 0.00 0.00 0.00 47 1025.7
20181023101813 17 76 33.8 49.9 0.00 0.00 0.00 48 1025.7
20181023101809 17 82 33.8 49.9 0.00 0.00 0.00 48 1025.7
20181023100311 17 76 33.8 53.1 0.00 0.00 0.00 48 1025.6
20181023100307 17 71 33.8 53.1 0.00 0.00 0.00 48 1025.6
20181023094811 16 101 30.6 49.9 0.00 0.00 0.00 49 1025.4
20181023094807 16 81 30.6 49.9 0.00 0.00 0.00 49 1025.4
20181023093311 16 36 37.0 59.5 0.00 0.00 0.00 49 1025.5
20181023093307 16 57 37.0 59.5 0.00 0.00 0.00 49 1025.5
20181023091811 16 73 35.4 61.2 0.00 0.00 0.00 48 1025.5
20181023091807 16 82 35.4 61.2 0.00 0.00 0.00 48 1025.5
20181023090311 16 77 35.4 56.3 0.00 0.00 0.00 48 1025.6
20181023090307 16 55 35.4 56.3 0.00 0.00 0.00 48 1025.6
20181023084811 16 66 35.4 56.3 0.00 0.00 0.00 47 1025.5
20181023084807 16 88 35.4 56.3 0.00 0.00 0.00 47 1025.5
20181023084042 16 84 32.2 56.3 0.00 0.00 0.00 47 1025.5
20181023083307 16 76 32.2 56.3 0.00 0.00 0.00 47 1025.5
20181023081811 15 80 37.0 62.8 0.00 0.00 0.00 47 1025.2
20181023081807 15 37 37.0 62.8 0.00 0.00 0.00 47 1025.2
20181023081043 15 86 38.6 62.8 0.00 0.00 0.00 46 1025.0
20181023080308 15 70 38.6 62.8 0.00 0.00 0.00 46 1025.0
20181023074810 15 78 35.4 56.3 0.00 0.00 0.00 45 1024.8
20181023074806 15 77 35.4 56.3 0.00 0.00 0.00 45 1024.8
20181023073311 15 63 37.0 56.3 0.00 0.00 0.00 44 1024.9
20181023073307 15 44 37.0 56.3 0.00 0.00 0.00 44 1024.9
20181023071808 15 76 40.2 62.8 0.00 0.00 0.00 44 1024.3
20181023070308 15 82 38.6 57.9 0.00 0.00 0.00 43 1024.3
20181023064808 15 77 38.6 57.9 0.00 0.00 0.00 42 1024.0
20181023063307 15 103 38.6 59.5 0.00 0.00 0.00 41 1024.0
20181023061807 15 68 37.0 54.7 0.00 0.00 0.00 41 1023.8
20181023060307 15 75 37.0 57.9 0.00 0.00 0.00 41 1023.6
20181023054808 16 81 38.6 64.4 0.00 0.00 0.00 41 1023.6
20181023053307 16 84 38.6 67.6 0.00 0.00 0.00 40 1023.4
20181023052542 16 91 38.6 66.0 0.00 0.00 0.00 40 1023.3
20181023051807 16 91 38.6 66.0 0.00 0.00 0.00 40 1023.3
20181023050307 16 75 43.5 66.0 0.00 0.00 0.00 39 1023.3
20181023044807 16 94 41.8 67.6 0.00 0.00 0.00 40 1023.3
20181023043308 16 63 38.6 64.4 0.00 0.00 0.00 40 1023.2
20181023041807 16 99 38.6 61.2 0.00 0.00 0.00 40 1023.3
20181023040307 16 65 38.6 61.2 0.00 0.00 0.00 40 1023.1
20181023034807 16 50 37.0 64.4 0.00 0.00 0.00 40 1023.0
20181023033307 16 78 40.2 67.6 0.00 0.00 0.00 41 1022.9
20181023031807 16 62 40.2 62.8 0.00 0.00 0.00 41 1022.7
20181023030307 16 69 43.5 69.2 0.00 0.00 0.00 41 1022.8
20181023024807 16 74 48.3 69.2 0.00 0.00 0.00 40 1022.7
20181023023307 16 64 46.7 70.8 0.00 0.00 0.00 40 1022.7
20181023022542 16 65 43.5 64.4 0.00 0.00 0.00 41 1022.9
20181023021917 16 101 38.6 59.5 0.00 0.00 0.00 41 1023.2
20181023021807 16 65 43.5 64.4 0.00 0.00 0.00 41 1022.9
20181023020306 16 101 38.6 59.5 0.00 0.00 0.00 41 1023.2
20181023015542 17 74 33.8 53.1 0.00 0.00 0.00 40 1023.4
20181023014807 17 74 33.8 53.1 0.00 0.00 0.00 40 1023.4
20181023014042 17 76 32.2 56.3 0.00 0.00 0.00 39 1023.4
20181023013307 17 76 32.2 56.3 0.00 0.00 0.00 39 1023.4
20181023011806 17 82 33.8 54.7 0.00 0.00 0.00 38 1022.9
20181023010306 17 34 30.6 59.5 0.00 0.00 0.00 37 1022.8
20181023004807 17 56 35.4 62.8 0.00 0.00 0.00 37 1022.8
20181023003307 17 80 33.8 57.9 0.00 0.00 0.00 37 1022.8
20181023001806 18 90 35.4 61.2 0.00 0.00 0.00 36 1023.0
20181023001042 18 108 37.0 64.4 0.00 0.00 0.00 36 1022.9
20181023000306 18 108 37.0 64.4 0.00 0.00 0.00 36 1022.9
20181022234807 18 71 32.2 61.2 0.00 0.00 0.00 35 1022.9
20181022233307 18 74 33.8 61.2 0.00 0.00 0.00 35 1023.4
20181022231806 18 101 24.1 51.5 0.00 0.00 0.00 35 1023.3
20181022230306 18 62 22.5 38.6 0.00 0.00 0.00 33 1023.7
20181022224805 18 74 25.7 43.5 0.00 0.00 0.00 32 1023.6
20181022223305 19 75 33.8 49.9 0.00 0.00 0.00 31 1023.5
20181022221805 19 63 33.8 49.9 0.00 0.00 0.00 31 1023.4
20181022220313 20 62 33.8 51.5 0.00 0.00 0.00 33 1023.2
20181022220305 19 87 35.4 51.5 0.00 0.00 0.00 32 1023.4
20181022214805 20 62 33.8 51.5 0.00 0.00 0.00 33 1023.2
20181022213304 20 79 32.2 54.7 0.00 0.00 0.00 33 1023.1
20181022211805 20 44 29.0 45.1 0.00 0.00 0.00 39 1023.1
20181022210305 20 74 25.7 46.7 0.00 0.00 0.00 41 1023.0
20181022205540 20 72 20.9 37.0 0.00 0.00 0.00 48 1023.0
20181022204804 20 72 20.9 37.0 0.00 0.00 0.00 48 1023.0
20181022203304 20 45 22.5 29.0 0.00 0.00 0.00 52 1023.0
20181022201804 20 67 20.9 27.4 0.00 0.00 0.00 50 1023.0
20181022201036 19 69 17.7 24.1 0.00 0.00 0.00 48 1022.8
20181022200306 19 69 17.7 24.1 0.00 0.00 0.00 48 1022.8
20181022194804 20 72 16.1 20.9 0.00 0.00 0.00 46 1022.6
20181022193303 21 74 14.5 19.3 0.00 0.00 0.00 43 1022.7
20181022191802 21 62 11.3 16.1 0.00 0.00 0.00 43 1022.7
20181022190302 21 97 9.7 16.1 0.00 0.00 0.00 42 1022.7
20181022184802 21 98 11.3 16.1 0.00 0.00 0.00 42 1022.6
20181022183303 21 67 11.3 16.1 0.00 0.00 0.00 40 1022.4
20181022181802 22 77 9.7 14.5 0.00 0.00 0.00 39 1022.4
20181022180301 22 83 9.7 14.5 0.00 0.00 0.00 38 1022.3
20181022174800 22 103 9.7 16.1 0.00 0.00 0.00 37 1022.3
20181022173300 22 74 8.0 14.5 0.00 0.00 0.00 38 1022.2
20181022171800 23 90 6.4 14.5 0.00 0.00 0.00 37 1021.9
20181022170300 23 68 8.0 19.3 0.00 0.00 0.00 36 1021.8
20181022164800 23 75 14.5 22.5 0.00 0.00 0.00 34 1021.8
20181022163300 23 63 16.1 29.0 0.00 0.00 0.00 33 1021.8
20181022161800 24 76 16.1 27.4 0.00 0.00 0.00 31 1021.8
20181022160300 24 73 12.9 22.5 0.00 0.00 0.00 32 1021.9
20181022154800 24 72 19.3 29.0 0.00 0.00 0.00 30 1021.8
20181022153300 24 55 20.9 29.0 0.00 0.00 0.00 29 1021.8
20181022152533 24 94 17.7 29.0 0.00 0.00 0.00 35 1021.8
20181022151758 24 94 17.7 29.0 0.00 0.00 0.00 35 1021.8
20181022150256 24 49 14.5 24.1 0.00 0.00 0.00 36 1021.8
20181022144756 24 74 17.7 30.6 0.00 0.00 0.00 36 1021.7
20181022143300 24 79 19.3 29.0 0.00 0.00 0.00 37 1021.6
20181022141756 24 76 14.5 20.9 0.00 0.00 0.00 38 1021.7